Preview of NWS' New Version of Forecast
This preview is not operational and should not be used for support decisions.

Regional Weather Roundup (RWR)

Issued by National Weather Service (NWS)

                            
000
ASUS45 KCYS 250110
RWRWY 

WYOMING REGIONAL WEATHER ROUNDUP
NATIONAL WEATHER SERVICE CHEYENNE WY
700 PM MDT SAT AUG 24 2019

NOTE:  "FAIR" INDICATES FEW OR NO CLOUDS BELOW 12,000 FEET
WITH NO SIGNIFICANT WEATHER AND/OR OBSTRUCTIONS TO VISIBILITY.

WYZ001-250200-
YELLOWSTONE NATIONAL PARK
  
CITY           SKY/WX    TMP DP  RH WIND       PRES   REMARKS
LK YELLOWSTONE   N/A     68  34  28 VRB7      30.18S                  
W YELLOWSTONE  NOT AVBL                                               

$$
WYZ002>013-054>058-071-098>099-250200-
NORTHERN WYOMING
  
CITY           SKY/WX    TMP DP  RH WIND       PRES   REMARKS
JACKSON        FAIR      76  34  21 W14       30.07S                  
CODY           FAIR      80  43  26 SE8       29.91S                  
GREYBULL       FAIR      85  43  22 E7        29.81F                  
WORLAND        FAIR      83  44  25 E10       29.84F                  
SHERIDAN       FAIR      80  50  34 SE6       29.86F                  
BUFFALO        FAIR      76  48  37 E3          N/A                   
GILLETTE       FAIR      77  55  46 CALM      29.92S                  
HULETT         FAIR      72  59  64 SW3       29.92                   
NEWCASTLE      FAIR      77  50  38 CALM      29.91                   

$$
WYZ014>020-022>026-101>103-250200-
CENTRAL WYOMING
  
CITY           SKY/WX    TMP DP  RH WIND       PRES   REMARKS
BIG PINEY      FAIR      80  35  19 W10G20    30.13S                  
PINEDALE       FAIR      75  32  20 W12       30.14                   
DUBOIS         FAIR      73  30  20 NW17G23   30.08                   
LANDER         FAIR      84  35  17 NW9G21    29.95S                  
RIVERTON       FAIR      84  37  18 SE3       29.94F                  
CASPER         FAIR      83  35  18 N9        29.96F                  
DOUGLAS        FAIR      81  43  26 NE8       29.96S                  

$$
WYZ021-027>030-104>119-250200-
SOUTHERN WYOMING
  
CITY           SKY/WX    TMP DP  RH WIND       PRES   REMARKS
EVANSTON       FAIR      77  29  17 SW18G31   30.19R                  
KEMMERER       FAIR      75  25  15 W20G28    30.18                   
ROCK SPRINGS   FAIR      80  28  15 W20G30    30.11S                  
DIXON          FAIR      81  25  12 S13       30.12R                  
RAWLINS        FAIR      82  26  13 W17G29    30.09S                  
SARATOGA       FAIR      77  30  18 W12G18    30.13S                  
LARAMIE        FAIR      77  22  13 W18       30.13S                  
CHEYENNE       FAIR      78  40  25 E9        30.06R                  
TORRINGTON     FAIR      76  58  53 SE8       29.91S                  
PINE BLUFFS    FAIR      73  52  46 E5        30.01S                  

$$